Location: Bergnershof
(48.9468°N, 10.9431°E)
Time: 10:56:48
(UTC+00:00)

Cosmos 1777 Rocket - Pass Details

Date: 03 March 2021
Orbit: 759 x 775 km, 74.0° (Epoch: 13 April)

Event Time Altitude Azimuth Distance (km) Brightness Sun altitude
Rises 18:27:15 0° 339° (NNW) 3,251 7.6 -14.6°
Reaches altitude 10° 18:29:43 10° 344° (NNW) 2,318 6.8 -15.0°
Maximum altitude 18:34:51 53° 61° (ENE) 944 4.1 -15.9°
Enters shadow 18:38:03 22° 130° (SE) 1,621 5.2 -16.4°
